Moron de la Frontera, Spain

12:32 AM CET on January 20, 2018 (GMT +0100)
Moron Air Base

Weather History for LEMO - February, 2013

Change the Weather History Date:

Thursday, February 28, 2013

  Actual Average Record
Temperature  
Mean Temperature 46 °F -  
Max Temperature 51 °F 68 °F 80 °F (1997)
Min Temperature 41 °F 46 °F 35 °F (2004)
Degree Days  
Heating Degree Days 19    
Moisture  
Dew Point 42 °F    
Average Humidity 88    
Maximum Humidity 100    
Minimum Humidity 67    
Precipitation  
Precipitation 0.00 in - - ()
Sea Level Pressure  
Sea Level Pressure 29.83 in    
Wind  
Wind Speed 6 mph ()    
Max Wind Speed 15 mph    
Max Gust Speed -    
Visibility 5.8 miles    
Events Rain    
Averages and records for this station are not official NWS values.
T = Trace of Precipitation, MM = Missing Value Source: Averaged Metar Reports

Daily Weather History Graph

Daily Weather History Graph

Search for Another Location

Airport or City:

Trip Planner

Search our weather history database for the weather conditions in past years. The results will help you decide how hot, cold, wet, or windy it might be!

Date:

Astronomy

Feb. 28, 2013 Rise Set
Actual Time 7:54 AM CET 7:15 PM CET
Civil Twilight 7:28 AM CET 7:41 PM CET
Nautical Twilight 6:58 AM CET 8:11 PM CET
Astronomical Twilight 6:28 AM CET 8:42 PM CET
Moon 10:21 PM CET (2/28) 9:01 AM CET (2/28)
Length of Visible Light 12h 13m
Length of Day
11h 20m
Waning Gibbous, 92% of the Moon is Illuminated
Feb 28
Waning Gibbous
Mar 4
Last Quarter
Mar 11
New
Mar 19
First Quarter
Mar 27
Full

Hourly Weather History & Observations

Time (CET) Temp. Windchill Dew Point Humidity Pressure Visibility Wind Dir Wind Speed Gust Speed Precip Events Conditions
12:00 AM 46.4 °F 44.3 °F 44.6 °F 93% 29.83 in 6.2 mi NNW 4.6 mph - N/A   Partly Cloudy
1:00 AM 46.4 °F 41.9 °F 44.6 °F 93% 29.83 in 6.2 mi North 9.2 mph - N/A   Partly Cloudy
2:00 AM 44.6 °F 38.8 °F 44.6 °F 100% 29.83 in 6.2 mi North 11.5 mph - N/A Rain Light Rain
2:43 AM 44.6 °F 40.7 °F 42.8 °F 93% 29.83 in 3.7 mi NW 6.9 mph - N/A Rain Rain
3:00 AM 42.8 °F 38.0 °F 42.8 °F 100% 29.83 in 4.3 mi NNW 8.1 mph - N/A Rain Rain
4:00 AM 42.8 °F 40.1 °F 42.8 °F 100% 29.83 in 3.7 mi NNW 4.6 mph - N/A Rain Rain
5:00 AM 42.8 °F 36.2 °F 41.0 °F 93% 29.80 in - ENE 12.7 mph - N/A   Clear
6:00 AM 41.0 °F 38.0 °F 41.0 °F 100% 29.80 in 6.2 mi East 4.6 mph - N/A   Partly Cloudy
7:00 AM 41.0 °F 36.4 °F 41.0 °F 100% 29.80 in 6.2 mi ENE 6.9 mph - N/A   Mostly Cloudy
7:42 AM 41.0 °F 38.0 °F 39.2 °F 93% 29.80 in 6.2 mi East 4.6 mph - N/A   Mostly Cloudy
8:00 AM 41.0 °F 38.0 °F 39.2 °F 93% 29.80 in 6.2 mi East 4.6 mph - N/A   Mostly Cloudy
10:00 AM 42.8 °F 38.0 °F 41.0 °F 93% 29.83 in 6.2 mi East 8.1 mph - N/A   Scattered Clouds
11:00 AM 44.6 °F - 41.0 °F 87% 29.83 in 6.2 mi Variable 2.3 mph - N/A   Scattered Clouds
12:00 PM 50.0 °F - 41.0 °F 71% 29.83 in 6.2 mi Variable 1.2 mph - N/A   Scattered Clouds
1:00 PM 48.2 °F - 41.0 °F 76% 29.83 in 6.2 mi West 4.6 mph - N/A   Scattered Clouds
2:00 PM 51.8 °F - 41.0 °F 67% 29.80 in 6.2 mi West 8.1 mph - N/A   Scattered Clouds
3:00 PM 51.8 °F - 42.8 °F 71% 29.80 in 6.2 mi West 11.5 mph - N/A   Scattered Clouds
4:00 PM 51.8 °F - 41.0 °F 67% 29.80 in 6.2 mi WSW 11.5 mph - N/A   Mostly Cloudy
4:15 PM 44.6 °F 37.8 °F 41.0 °F 87% 29.80 in 2.2 mi NNW 15.0 mph - N/A Rain Rain
5:00 PM 46.4 °F 43.5 °F 44.6 °F 93% 29.80 in 6.2 mi NNW 5.8 mph - N/A Rain Rain
6:00 PM 48.2 °F - 44.6 °F 87% 29.83 in 6.2 mi NW 8.1 mph - N/A   Mostly Cloudy
7:00 PM 46.4 °F 42.9 °F 41.0 °F 81% 29.86 in 6.2 mi North 6.9 mph - N/A   Scattered Clouds
8:00 PM 44.6 °F - 41.0 °F 87% 29.89 in 6.2 mi Variable 1.2 mph - N/A   Scattered Clouds
9:00 PM 44.6 °F 41.4 °F 41.0 °F 87% 29.92 in 6.2 mi West 5.8 mph - N/A   Scattered Clouds
10:00 PM 44.6 °F 41.4 °F 41.0 °F 87% 29.92 in 6.2 mi West 5.8 mph - N/A   Scattered Clouds
11:00 PM 42.8 °F - 41.0 °F 93% 29.92 in 6.2 mi WNW 2.3 mph - N/A   Scattered Clouds